Weather Roundup
Issued by NWS

Home | Current Version | Previous Version | Text Only | Print | Product List | Glossary On
Versions: 1 2 3 4 5 6 7 8 9 10 11 12 13 14 15 16 17 18 19 20 21 22 23 24 25 26 27 28 29 30 31 32 33 34 35 36 37 38 39 40 41 42 43 44 45 46 47 48 49 50
100
NZUS93 KARX 291210
HRRWXR

CURRENT HOURLY OBSERVATIONS ACROSS
MUCH OF THE UPPER MISSISSIPPI VALLEY
NATIONAL WEATHER SERVICE LA CROSSE WI
700 AM CDT SAT APR 29 2017


...SOUTHEAST MINNESOTA...


CITY           SKY/WX    TMP DP  RH WIND       PRES   REMARKS
ROCHESTER      CLOUDY    35  29  78 NE16      30.19F WCI  25
ROCHESTER/MAYO FAIR      36  28  75 NE7       30.22S WCI  30
WINONA         CLEAR     37  30  75 NE3       30.26S
AUSTIN         PTCLDY    36  30  80 NE13G22   30.17F WCI  27
ALBERT LEA     PTCLDY    36  28  75 NE14G20   30.17F WCI  27
DODGE CENTER   CLOUDY    34  28  80 NE14      30.19F WCI  24
PRESTON        PTCLDY    35  29  81 NE13G21   30.20R WCI  26
OWATONNA       PTCLDY    36  28  75 NE14      30.21F WCI  27
FARIBAULT      PTCLDY    37  28  70 NE9       30.24F WCI  31
$$

...ELSEWHERE IN MINNESOTA...


CITY           SKY/WX    TMP DP  RH WIND       PRES   REMARKS
MINNEAPOLIS    CLOUDY    39  26  59 E12       30.27R WCI  32
INTNL FALLS    CLEAR     26  23  88 NE5       30.24S WCI  20
DULUTH         CLEAR     33  26  75 N5        30.25R WCI  29
RED WING       CLEAR     37  25  60 E8        30.28R WCI  31
REDWOOD FALLS  CLOUDY    37  26  64 E6        30.25S WCI  32
MANKATO        MOCLDY    38  29  70 E16       30.24R WCI  29
WORTHINGTON    CLOUDY    34  27  75 NE9       30.22R WCI  27
FAIRMONT       MOCLDY    37  30  75 NE13      30.21S WCI  29
$$

...SOUTHWEST WISCONSIN...


CITY           SKY/WX    TMP DP  RH WIND       PRES   REMARKS
LA CROSSE      PTCLDY    40  28  62 NE12G20   30.23F WCI  33
PRAIRIE DU CHI CLOUDY    42  31  64 NE7       30.19R
BOSCOBEL       PTCLDY    43  32  65 NE8       30.21R
LONE ROCK      CLOUDY    42  32  67 NE13      30.22R
PLATTEVILLE    MOSUNNY   42  36  78 NE9       30.18R
FORT MC COY    SUNNY     37  29  72 NE8       30.26R WCI  31
CAMP DOUGLAS   CLOUDY    37  26  65 NE8       30.26R WCI  31
MAUSTON-NEW LI CLOUDY    37  29  72 NE7       30.25R WCI  31
VIROQUA        FAIR      36  32  85 NE13      30.20R WCI  27
WIS DELLS      CLOUDY    37  29  72 NE13G20   30.24R WCI  29
$$

...ELSEWHERE IN WISCONSIN...


CITY           SKY/WX    TMP DP  RH WIND       PRES   REMARKS
MILWAUKEE      CLOUDY    41  35  79 N21G28    30.20R
MADISON        PTSUNNY   41  33  73 NE9       30.20R
GREEN BAY      SUNNY     37  29  72 N14       30.23F WCI  28
EAU CLAIRE     PTCLDY    35  27  72 NE5       30.29R WCI  31
BLACK RVR FLS  FAIR      34  28  77 NE6       30.25S WCI  29
MEDFORD        SUNNY     32  26  80 NE3       30.26S
WAUSAU         SUNNY     33  27  78 CALM      30.26R
WIS RAPIDS     SUNNY     36  28  73 NE7       30.27R WCI  30
MARSHFIELD     SUNNY     34  27  75 NE7       30.26R WCI  28
RICE LAKE      CLOUDY    31  29  93 SE5       30.31R WCI  26
$$

...NORTHEAST IOWA...


CITY           SKY/WX    TMP DP  RH WIND       PRES   REMARKS
WATERLOO       CLOUDY    40  34  79 NE10      30.15R WCI  33
DUBUQUE        CLOUDY    43  35  73 NE15      30.14R
DECORAH        PTCLDY    37  32  81 NE8       30.16R WCI  31
MASON CITY     CLOUDY    38  31  76 NE9       30.18R WCI  31
CHARLES CITY   CLOUDY    39  32  75 NE12G17   30.17R WCI  32
OELWEIN        CLOUDY    41  34  75 E16       30.15R
$$

...ELSEWHERE IN IOWA...


CITY           SKY/WX    TMP DP  RH WIND       PRES   REMARKS
DES MOINES     CLOUDY    45  35  68 NE16G24   30.09R
IOWA CITY      CLOUDY    47  39  74 NE13G21   30.09F
FORT DODGE     CLOUDY    37  30  75 NE9       30.13F WCI  31
MARSHALLTOWN   CLOUDY    42  35  76 NE17      30.12R
CEDAR RAPIDS   CLOUDY    44  39  82 NE17      30.09S
$$

...NORTHERN ILLINOIS...


CITY           SKY/WX    TMP DP  RH WIND       PRES   REMARKS
CHICAGO-OHARE  CLOUDY    46  35  65 NE12G23   30.16R
CHICAGO-MIDWAY CLOUDY    46  38  73 N17G23    30.15R
MOLINE         CLOUDY    47  43  86 NE15      30.07F
ROCKFORD       CLOUDY    45  34  65 NE12      30.17S
PEORIA         CLOUDY    48  43  82 NE20G26   30.04S
$$

NOTE: "FAIR" INDICATES FEW OR NO CLOUDS BELOW 12,000 FEET WITH NO
SIGNIFICANT WEATHER AND/OR OBSTRUCTIONS TO VISIBILITY. WIND
SPEEDS ARE IN MILES-PER-HOUR.




USA.gov is the U.S. government's official web portal to all federal, state and local government web resources and services.